EW4921 Weather Reports


Display with metric or nautical units.
time (UTC)temp
F
wind
direction
speed
MPH
gust
MPH
rain 1hr
in
rain 24hr
in
rain mn
in
humidity
%
barometer
mb
20260506033520 57 230 0.0 0.0 0.00 0.00 0.00 73 1015.9
20260506033014 57 230 0.0 0.0 0.00 0.00 0.00 73 1015.8
20260506032517 57 230 0.0 0.0 0.00 0.00 0.00 72 1015.5
20260506032014 58 230 0.0 0.0 0.00 0.00 0.00 72 1015.4
20260506031556 58 230 0.0 0.0 0.00 0.00 0.00 72 1015.4
20260506031026 58 230 0.0 0.0 0.00 0.00 0.00 72 1015.3
20260506030547 58 230 0.0 0.0 0.00 0.00 0.00 71 1015.3
20260506030019 58 230 0.0 0.0 0.00 0.00 0.00 71 1015.2
20260506025540 58 230 0.0 0.0 0.00 0.00 0.00 71 1015.1
20260506025026 59 230 0.0 0.0 0.00 0.00 0.00 71 1015.1
20260506024547 59 230 0.0 0.0 0.00 0.00 0.00 71 1015.0
20260506024022 59 230 0.0 0.0 0.00 0.00 0.00 70 1015.1
20260506023521 59 230 0.0 0.0 0.00 0.00 0.00 70 1015.0
20260506023019 59 230 0.0 0.0 0.00 0.00 0.00 70 1014.9
20260506022541 59 231 0.0 0.0 0.00 0.00 0.00 70 1014.9
20260506022059 59 231 0.0 0.0 0.00 0.00 0.00 69 1014.8
20260506021537 59 231 0.0 0.0 0.00 0.00 0.00 69 1014.8
20260506021024 59 231 0.0 0.0 0.00 0.00 0.00 69 1014.8
20260506020548 59 231 0.0 0.0 0.00 0.00 0.00 68 1014.7
20260506020022 59 231 0.0 0.0 0.00 0.00 0.00 68 1014.6
20260506015522 59 231 0.0 0.0 0.00 0.00 0.00 68 1014.7
20260506015033 59 231 0.0 3.0 0.00 0.00 0.00 67 1014.7
20260506014534 59 221 0.0 3.0 0.00 0.00 0.00 67 1014.8
20260506014021 59 200 0.0 1.0 0.00 0.00 0.00 66 1014.7
20260506013515 59 200 0.0 4.0 0.00 0.00 0.00 66 1014.7
20260506013045 59 200 1.0 4.0 0.00 0.00 0.00 66 1014.7
20260506012523 59 335 0.0 2.0 0.00 0.00 0.00 66 1014.7
20260506012021 59 339 0.0 9.0 0.00 0.00 0.00 66 1014.7
20260506011520 59 339 1.0 9.0 0.00 0.00 0.00 65 1014.8
20260506011035 60 182 1.0 10.0 0.00 0.00 0.00 65 1014.9
20260506010557 60 344 2.0 10.0 0.00 0.00 0.00 65 1014.8
20260506010022 60 332 3.0 9.0 0.00 0.00 0.00 65 1014.7
20260506005536 60 28 2.0 10.0 0.00 0.00 0.00 65 1014.7
20260506005027 60 242 2.0 10.0 0.00 0.00 0.00 65 1014.6
20260506004524 61 350 2.0 10.0 0.00 0.00 0.00 64 1014.6
20260506004023 61 318 1.0 5.0 0.00 0.00 0.00 64 1014.6
20260506003543 61 248 0.0 12.0 0.00 0.00 0.00 65 1014.5
20260506003021 61 44 3.0 12.0 0.00 0.00 0.00 65 1014.6
20260506002538 62 360 5.0 12.0 0.00 0.00 0.00 64 1014.6
20260506002025 63 342 3.0 10.0 0.00 0.00 0.00 63 1014.5
20260506001527 63 169 2.0 8.0 0.00 0.00 0.00 62 1014.4
20260506001023 63 216 3.0 8.0 0.00 0.00 0.00 63 1014.4
20260506000620 63 346 1.0 6.0 0.00 0.00 0.00 62 1014.4
20260506000024 63 338 3.0 9.0 0.00 0.00 0.00 62 1014.3
20260505235525 63 329 2.0 6.0 0.00 0.00 0.00 61 1014.2
20260505235033 63 183 0.0 8.0 0.00 0.00 0.00 62 1014.2
20260505234533 63 349 0.0 10.0 0.00 0.00 0.00 62 1014.3
20260505234025 63 337 1.0 10.0 0.00 0.00 0.00 62 1014.3
20260505233519 63 234 1.0 5.0 0.00 0.00 0.00 62 1014.3
20260505233031 63 327 0.0 9.0 0.00 0.00 0.00 63 1014.2
20260505232549 63 314 3.0 9.0 0.00 0.00 0.00 62 1014.2
20260505232020 63 335 1.0 8.0 0.00 0.00 0.00 62 1014.2
20260505231514 63 5 2.0 10.0 0.00 0.00 0.00 62 1014.2
20260505231052 63 317 5.0 12.0 0.00 0.00 0.00 60 1014.3
20260505230625 64 335 5.0 10.0 0.00 0.00 0.00 59 1014.3
20260505230025 65 340 3.0 13.0 0.00 0.00 0.00 58 1014.2
20260505225517 66 355 3.0 13.0 0.00 0.00 0.00 57 1014.3
20260505225029 65 360 3.0 8.0 0.00 0.00 0.00 59 1014.2
20260505224551 65 245 4.0 8.0 0.00 0.00 0.00 58 1014.3
20260505224021 64 269 1.0 10.0 0.00 0.00 0.00 60 1014.4
20260505223522 64 324 4.0 10.0 0.00 0.00 0.00 58 1014.4
20260505223030 65 340 3.0 9.0 0.00 0.00 0.00 59 1014.4
20260505222532 65 360 3.0 10.0 0.00 0.00 0.00 57 1014.5
20260505222022 66 348 4.0 12.0 0.00 0.00 0.00 60 1014.4
20260505221517 66 322 5.0 12.0 0.00 0.00 0.00 57 1014.5
20260505221029 66 332 2.0 8.0 0.00 0.00 0.00 58 1014.4
20260505220549 65 251 3.0 8.0 0.00 0.00 0.00 57 1014.5
20260505220035 65 320 3.0 11.0 0.00 0.00 0.00 56 1014.4
20260505215534 65 331 6.0 11.0 0.00 0.00 0.00 55 1014.5
20260505215042 66 350 5.0 9.0 0.00 0.00 0.00 55 1014.6
20260505214517 66 316 1.0 8.0 0.00 0.00 0.00 55 1014.5
20260505214053 66 325 3.0 10.0 0.00 0.00 0.00 54 1014.6
20260505213532 66 338 1.0 10.0 0.00 0.00 0.00 54 1014.6
20260505213025 66 355 1.0 6.0 0.00 0.00 0.00 56 1014.6
20260505212526 65 307 2.0 11.0 0.00 0.00 0.00 55 1014.6
20260505212021 65 194 1.0 11.0 0.00 0.00 0.00 55 1014.6
20260505211543 64 263 0.0 9.0 0.00 0.00 0.00 56 1014.7
20260505211055 65 331 0.0 6.0 0.00 0.00 0.00 55 1014.8
20260505210559 65 331 0.0 9.0 0.00 0.00 0.00 57 1014.7
20260505210024 65 323 1.0 12.0 0.00 0.00 0.00 55 1014.7
20260505205524 66 32 4.0 12.0 0.00 0.00 0.00 54 1014.7
20260505205018 66 326 2.0 5.0 0.00 0.00 0.00 54 1014.7
20260505204537 66 339 2.0 8.0 0.00 0.00 0.00 55 1014.7
20260505204014 66 350 0.0 9.0 0.00 0.00 0.00 55 1014.7
20260505203514 67 348 3.0 8.0 0.00 0.00 0.00 54 1014.7
20260505203052 67 213 1.0 9.0 0.00 0.00 0.00 56 1014.6
20260505202533 66 211 3.0 8.0 0.00 0.00 0.00 54 1014.6
20260505202022 66 337 2.0 9.0 0.00 0.00 0.00 55 1014.6
20260505201515 66 306 3.0 9.0 0.00 0.00 0.00 57 1014.5
20260505201029 66 223 1.0 9.0 0.00 0.00 0.00 56 1014.5
20260505200552 66 328 0.0 9.0 0.00 0.00 0.00 56 1014.6
20260505200021 67 331 1.0 8.0 0.00 0.00 0.00 55 1014.6
20260505195523 67 360 4.0 8.0 0.00 0.00 0.00 55 1014.6
20260505195032 67 355 3.0 10.0 0.00 0.00 0.00 56 1014.6
20260505194532 66 340 4.0 10.0 0.00 0.00 0.00 57 1014.7
20260505194025 66 327 0.0 10.0 0.00 0.00 0.00 57 1014.6
20260505193524 66 332 1.0 9.0 0.00 0.00 0.00 56 1014.7
20260505193022 66 267 1.0 9.0 0.00 0.00 0.00 55 1014.7
20260505192523 67 5 2.0 6.0 0.00 0.00 0.00 55 1014.7
20260505192030 67 306 0.0 10.0 0.00 0.00 0.00 58 1014.7
20260505191531 67 329 1.0 10.0 0.00 0.00 0.00 56 1014.8
20260505191023 67 269 1.0 8.0 0.00 0.00 0.00 55 1014.7
20260505190548 67 166 2.0 8.0 0.00 0.00 0.00 54 1014.7
20260505190032 68 355 2.0 9.0 0.00 0.00 0.00 56 1014.6
20260505185531 68 230 2.0 9.0 0.00 0.00 0.00 54 1014.7
20260505185017 67 341 2.0 9.0 0.00 0.00 0.00 55 1014.7
20260505184539 66 179 3.0 9.0 0.00 0.00 0.00 57 1014.7
20260505184032 66 211 2.0 4.0 0.00 0.00 0.00 56 1014.8
20260505183535 66 152 1.0 4.0 0.00 0.00 0.00 57 1014.7
20260505183044 66 335 0.0 10.0 0.00 0.00 0.00 57 1014.7
20260505182519 66 136 2.0 10.0 0.00 0.00 0.00 57 1014.6
20260505182036 66 355 1.0 7.0 0.00 0.00 0.00 58 1014.6
20260505181535 65 217 1.0 10.0 0.00 0.00 0.00 59 1014.6
20260505181025 65 336 0.0 7.0 0.00 0.00 0.00 58 1014.5
20260505180622 64 223 2.0 7.0 0.00 0.00 0.00 58 1014.6
20260505180026 64 346 1.0 5.0 0.00 0.00 0.00 58 1014.6
20260505175522 64 311 0.0 5.0 0.00 0.00 0.00 59 1014.6
20260505175021 64 73 0.0 6.0 0.00 0.00 0.00 60 1014.6
20260505174519 63 200 2.0 6.0 0.00 0.00 0.00 59 1014.6
20260505174028 62 219 1.0 5.0 0.00 0.00 0.00 58 1014.5
20260505173522 62 312 0.0 5.0 0.00 0.00 0.00 60 1014.5
20260505173028 62 5 0.0 4.0 0.00 0.00 0.00 59 1014.5
20260505172528 62 216 1.0 4.0 0.00 0.00 0.00 61 1014.5
20260505172024 62 333 0.0 4.0 0.00 0.00 0.00 60 1014.5
20260505171522 61 202 0.0 6.0 0.00 0.00 0.00 61 1014.5
20260505171014 61 202 1.0 6.0 0.00 0.00 0.00 59 1014.5
20260505170605 60 207 0.0 5.0 0.00 0.00 0.00 61 1014.4
20260505170025 60 193 0.0 2.0 0.00 0.00 0.00 63 1014.5
20260505165525 60 191 0.0 4.0 0.00 0.00 0.00 61 1014.6
20260505165024 59 292 0.0 5.0 0.00 0.00 0.00 61 1014.5
20260505164537 59 200 1.0 5.0 0.00 0.00 0.00 62 1014.5
20260505164028 59 289 0.0 4.0 0.00 0.00 0.00 62 1014.4
20260505163529 59 277 2.0 4.0 0.00 0.00 0.00 63 1014.4
20260505163036 59 294 0.0 5.0 0.00 0.00 0.00 63 1014.4
20260505162534 59 327 0.0 6.0 0.00 0.00 0.00 66 1014.3
20260505162032 58 328 0.0 6.0 0.00 0.00 0.00 69 1014.3
20260505161533 58 240 0.0 4.0 0.00 0.00 0.00 71 1014.2
20260505161023 57 241 2.0 4.0 0.00 0.00 0.00 71 1014.2
20260505160546 57 244 0.0 0.0 0.00 0.00 0.00 72 1014.2
20260505153028 54 271 0.0 0.0 0.00 0.00 0.00 89 1014.1
20260505152521 54 271 0.0 2.0 0.00 0.00 0.00 91 1014.1
20260505152032 54 271 0.0 2.0 0.00 0.00 0.00 92 1014.0
20260505151552 53 272 0.0 0.0 0.00 0.00 0.00 92 1014.0
20260505151055 53 272 0.0 0.0 0.00 0.00 0.00 92 1014.1
20260505150602 52 272 0.0 3.0 0.00 0.00 0.00 92 1014.0
20260505140605 47 276 0.0 0.0 0.00 0.00 0.00 91 1014.0
20260505125032 46 276 0.0 0.0 0.00 0.00 0.00 89 1013.6
20260505124552 46 276 0.0 0.0 0.00 0.00 0.00 89 1013.6
20260505124020 47 276 0.0 0.0 0.00 0.00 0.00 89 1013.7
20260505123514 47 276 0.0 0.0 0.00 0.00 0.00 89 1013.7
20260505123026 47 276 0.0 0.0 0.00 0.00 0.00 89 1013.8
20260505122520 47 276 0.0 0.0 0.00 0.00 0.00 89 1013.8
20260505122032 47 276 0.0 0.0 0.00 0.00 0.00 89 1013.7
20260505121549 47 276 0.0 0.0 0.00 0.00 0.00 89 1013.7
20260505121045 47 276 0.0 0.0 0.00 0.00 0.00 89 1013.7
20260505120547 47 276 0.0 0.0 0.00 0.00 0.00 89 1013.7
20260505120020 47 276 0.0 0.0 0.00 0.00 0.00 89 1013.7
20260505115536 47 276 0.0 0.0 0.00 0.00 0.00 89 1013.8
20260505115028 47 276 0.0 0.0 0.00 0.00 0.00 88 1013.7
20260505114525 47 276 0.0 0.0 0.00 0.00 0.00 88 1013.7
20260505114043 47 276 0.0 0.0 0.00 0.00 0.00 88 1013.6
20260505113523 47 276 0.0 0.0 0.00 0.00 0.00 88 1013.7
20260505113020 47 276 0.0 0.0 0.00 0.00 0.00 88 1013.8
20260505112521 47 276 0.0 0.0 0.00 0.00 0.00 88 1013.8
20260505112028 47 276 0.0 0.0 0.00 0.00 0.00 87 1013.8
20260505111531 48 276 0.0 0.0 0.00 0.00 0.00 87 1013.7
20260505111021 48 276 0.0 0.0 0.00 0.00 0.00 87 1013.7
20260505110546 48 276 0.0 0.0 0.00 0.00 0.00 87 1013.8
20260505102051 49 276 0.0 0.0 0.00 0.00 0.00 86 1013.8
20260505101553 49 276 0.0 0.0 0.00 0.00 0.00 85 1013.8
20260505101023 49 276 0.0 0.0 0.00 0.00 0.00 85 1013.8
20260505100617 49 276 0.0 0.0 0.00 0.00 0.00 85 1013.8
20260505100018 49 276 0.0 0.0 0.00 0.00 0.00 85 1013.8
20260505095540 49 276 0.0 0.0 0.00 0.00 0.00 84 1013.9
20260505095029 49 276 0.0 0.0 0.00 0.00 0.00 84 1014.0
20260505094532 50 276 0.0 0.0 0.00 0.00 0.00 84 1014.0
20260505094022 50 276 0.0 0.0 0.00 0.00 0.00 84 1014.0
20260505093518 50 276 0.0 0.0 0.00 0.00 0.00 83 1014.1
20260505093026 50 276 0.0 0.0 0.00 0.00 0.00 83 1014.1
20260505092527 50 276 0.0 0.0 0.00 0.00 0.00 83 1014.2
20260505092021 50 276 0.0 0.0 0.00 0.00 0.00 82 1014.2
20260505091523 50 276 0.0 0.0 0.00 0.00 0.00 82 1014.3
20260505091021 51 276 0.0 0.0 0.00 0.00 0.00 81 1014.4
20260505090611 51 276 0.0 0.0 0.00 0.00 0.00 80 1014.4
20260505090033 51 276 0.0 0.0 0.00 0.00 0.00 80 1014.4
20260505085533 52 276 0.0 0.0 0.00 0.00 0.00 80 1014.5
20260505085024 52 276 0.0 0.0 0.00 0.00 0.00 80 1014.6
20260505084522 52 276 0.0 0.0 0.00 0.00 0.00 79 1014.6
20260505084012 52 276 0.0 0.0 0.00 0.00 0.00 80 1014.6
20260505083534 53 276 0.0 0.0 0.00 0.00 0.00 80 1014.6
20260505083042 53 276 0.0 0.0 0.00 0.00 0.00 80 1014.7
20260505082523 53 276 0.0 0.0 0.00 0.00 0.00 80 1014.7
20260505082041 53 276 0.0 0.0 0.00 0.00 0.00 80 1014.8
20260505081516 53 276 0.0 0.0 0.00 0.00 0.00 80 1014.9
20260505081025 53 276 0.0 0.0 0.00 0.00 0.00 80 1014.9
20260505080620 53 276 0.0 0.0 0.00 0.00 0.00 80 1014.9
20260505080021 54 276 0.0 0.0 0.00 0.00 0.00 80 1014.9
20260505075519 54 276 0.0 0.0 0.00 0.00 0.00 80 1015.0
20260505075031 54 276 0.0 0.0 0.00 0.00 0.00 80 1015.0
20260505074527 54 276 0.0 0.0 0.00 0.00 0.00 80 1015.1
20260505074018 54 276 0.0 0.0 0.00 0.00 0.00 79 1015.1
20260505073541 54 276 0.0 0.0 0.00 0.00 0.00 80 1015.1
20260505073030 54 276 0.0 0.0 0.00 0.00 0.00 80 1015.1
20260505072533 54 276 0.0 0.0 0.00 0.00 0.00 80 1015.0
20260505072044 54 276 0.0 0.0 0.00 0.00 0.00 80 1015.0
20260505071519 54 276 0.0 1.0 0.00 0.00 0.00 80 1015.0
20260505071050 54 276 0.0 1.0 0.00 0.00 0.00 80 1015.1
20260505070551 54 276 0.0 0.0 0.00 0.00 0.00 80 1015.2
20260505070013 54 276 0.0 0.0 0.00 0.00 0.00 80 1015.1
20260505065536 54 276 0.0 0.0 0.00 0.00 0.00 80 1015.1
20260505065023 54 276 0.0 0.0 0.00 0.00 0.00 83 1015.1
20260505064522 54 276 0.0 0.0 0.00 0.00 0.00 80 1015.1
20260505064019 54 276 0.0 0.0 0.00 0.00 0.00 80 1015.2
20260505063515 54 276 0.0 3.0 0.00 0.00 0.00 80 1015.0
20260505063051 54 276 0.0 3.0 0.00 0.00 0.00 80 1015.1
20260505062528 54 236 0.0 0.0 0.00 0.00 0.00 81 1015.0
20260505062039 54 236 0.0 0.0 0.00 0.00 0.00 80 1015.2
20260505061518 54 236 0.0 0.0 0.00 0.00 0.00 80 1015.1
20260505061016 54 236 0.0 0.0 0.00 0.00 0.00 81 1015.1
20260505060558 54 236 0.0 0.0 0.00 0.00 0.00 81 1015.1
20260505060039 54 236 0.0 0.0 0.00 0.00 0.00 81 1015.1
20260505055520 55 218 0.0 0.0 0.00 0.00 0.00 82 1015.1
20260505055031 55 218 0.0 0.0 0.00 0.00 0.00 83 1015.2
20260505054531 55 218 0.0 0.0 0.00 0.00 0.00 83 1015.2
20260505054022 55 218 0.0 0.0 0.00 0.00 0.00 83 1015.2
20260505053524 55 209 0.0 4.0 0.00 0.00 0.00 83 1015.2
20260505053051 55 213 0.0 4.0 0.00 0.00 0.00 83 1015.2
20260505052533 55 291 0.0 0.0 0.00 0.00 0.00 83 1015.2
20260505052023 55 291 0.0 0.0 0.00 0.00 0.00 82 1015.3
20260505051518 55 290 0.0 0.0 0.00 0.00 0.00 82 1015.2
20260505051030 55 290 0.0 0.0 0.00 0.00 0.00 82 1015.2
20260505050546 55 290 0.0 2.0 0.00 0.00 0.00 82 1015.2
20260505041532 55 344 0.0 5.0 0.00 0.00 0.00 80 1015.2
20260505041022 56 346 1.0 5.0 0.00 0.00 0.00 80 1015.3
20260505040541 56 27 0.0 2.0 0.00 0.00 0.00 80 1015.3
20260505040014 56 28 0.0 5.0 0.00 0.00 0.00 79 1015.3
20260505035555 56 28 0.0 5.0 0.00 0.00 0.00 79 1015.3
20260505035046 56 294 0.0 0.0 0.00 0.00 0.00 78 1015.3
20260505034526 56 295 0.0 4.0 0.00 0.00 0.00 78 1015.2
20260505034039 56 292 1.0 3.0 0.00 0.00 0.00 79 1015.2